Home > Weather > Pointe-à-Pitre > Past weeks

Flag for Guadeloupe Past Weather in Pointe-à-Pitre, Guadeloupe — Yesterday and Last 2 Weeks

Now
86 °F

Passing clouds.


Feels Like: 92 °F
Forecast: 77 / 87 °F
Wind: 17 mph from Southeast

Location: Le Raizet - Guadeloupe

Current Time: Jun 28, 2016 at 2:48:33 PM

Latest Report: Jun 28, 2016 at 2:00 PM


Visibility: N/A

Pressure: 30.01 "Hg

Humidity: 62%

Dew Point: 72 °F

Location of Pointe-à-PitreLocation

Past Weather in Pointe-à-Pitre — Graph

°F

Pointe-à-Pitre Temperature Yesterday

Maximum temperature yesterday: 86 °F (at 11:30 AM)
Minimum temperature yesterday: 75 °F (at 12:30 AM)
Average temperature yesterday: 80 °F

High & Low Weather Summary for the Past Weeks

 TemperatureHumidityPressure
High90 °F (Jun 15, 12:00 PM)100% (Jun 19, 6:00 PM)30.15 "Hg (Jun 19, 6:00 PM)
Low73 °F (Jun 23, 5:30 AM)46% (Jun 15, 12:30 PM)29.95 "Hg (Jun 25, 3:00 PM)
Average82 °F75%30.04 "Hg
* Reported Jun 13 1:00 PM — Jun 28 1:30 PM, Pointe-à-Pitre, Weather by CustomWeather, © 2016

Note: Actual official high and low records may vary slightly from our data, if they occured in-between our weather recording intervals... More about our weather records

Advertising

Pointe-à-Pitre Weather History for the Previous 24 Hours

Scroll right to see more
 ConditionsComfort  
Time TempWeatherWind HumidityBarometerVisibility
1:30 PM
Tue, Jun 28
86 °FScattered clouds.18 mph62%30.01 "HgN/A
1:00 PM86 °FScattered clouds.16 mph59%30.04 "HgN/A
12:30 PM86 °FScattered clouds.15 mph59%30.04 "HgN/A
12:00 PM86 °FPassing clouds.16 mph59%30.04 "HgN/A
11:30 AM86 °FScattered clouds.17 mph59%30.04 "HgN/A
11:00 AM86 °FPassing clouds.15 mph62%30.04 "HgN/A
10:30 AM86 °FScattered clouds.16 mph59%30.04 "HgN/A
10:00 AM86 °FPartly sunny.17 mph59%30.04 "HgN/A
9:30 AM86 °FPartly sunny.17 mph62%30.04 "HgN/A
9:00 AM84 °FPartly sunny.15 mph70%30.04 "HgN/A
8:30 AM84 °FPassing clouds.16 mph66%30.04 "HgN/A
8:00 AM84 °FPartly sunny.12 mph66%30.04 "HgN/A
7:30 AM82 °FClear.9 mph66%30.04 "HgN/A
7:00 AM81 °FPassing clouds.5 mph74%30.04 "HgN/A
6:30 AM77 °FClear.3 mph83%30.01 "HgN/A
6:00 AM77 °FClear.2 mph83%30.01 "HgN/A
5:30 AM75 °FClear.No wind83%30.01 "HgN/A
5:00 AM75 °FClear.3 mph83%30.01 "HgN/A
4:30 AM77 °FClear.3 mph79%30.01 "HgN/A
4:00 AM77 °FClear.3 mph79%30.01 "HgN/A
3:30 AM75 °FClear.3 mph83%30.01 "HgN/A
3:00 AM75 °FClear.3 mph89%30.01 "HgN/A
2:30 AM75 °FClear.No wind89%30.01 "HgN/A
2:00 AM77 °FPassing clouds.No wind83%30.01 "HgN/A
1:30 AM77 °FPassing clouds.2 mph83%30.01 "HgN/A
1:00 AM77 °FPassing clouds.5 mph83%30.01 "HgN/A
12:30 AM77 °FClear.5 mph83%30.01 "HgN/A
12:00 AM77 °FPassing clouds.3 mph83%30.04 "HgN/A
11:30 PM
Mon, Jun 27
77 °FClear.3 mph83%30.04 "HgN/A
11:00 PM77 °FClear.3 mph89%30.04 "HgN/A
10:30 PM79 °FPassing clouds.5 mph84%30.04 "HgN/A
10:00 PM79 °FPassing clouds.7 mph84%30.04 "HgN/A
9:30 PM79 °FPassing clouds.5 mph79%30.04 "HgN/A
9:00 PM79 °FClear.7 mph79%30.04 "HgN/A
8:30 PM81 °FPassing clouds.5 mph79%30.01 "HgN/A
8:00 PM81 °FPassing clouds.5 mph79%30.01 "HgN/A
7:30 PM81 °FClear.6 mph74%30.01 "HgN/A
7:00 PM81 °FClear.7 mph79%30.01 "HgN/A
6:30 PM82 °FClear.8 mph70%30.01 "HgN/A
6:00 PM82 °FPassing clouds.12 mph70%29.98 "HgN/A
5:30 PM84 °FScattered clouds.14 mph62%29.98 "HgN/A
5:00 PM84 °FPassing clouds.13 mph66%29.98 "HgN/A
4:30 PM86 °FPassing clouds.14 mph62%29.98 "HgN/A
4:00 PM86 °FScattered clouds.17 mph62%29.98 "HgN/A
3:30 PM86 °FPassing clouds.16 mph62%29.98 "HgN/A
3:00 PM86 °FScattered clouds.15 mph62%30.01 "HgN/A
2:30 PM86 °FBroken clouds.15 mph59%30.01 "HgN/A
2:00 PM86 °FScattered clouds.16 mph62%30.01 "HgN/A
Weather by CustomWeather, © 2016

See weather overviewHow to use our weather pages